Location: Unspecified
(0.0000°N, 0.0000°E)
Time: 17:19:14
(UTC+00:00)

Envisat - Pass Details

Date: 09 May 2021
Orbit: 764 x 766 km, 98.1° (Epoch: 14 May)

Event Time Altitude Azimuth Distance (km) Brightness Sun altitude
Rises 05:19:22 0° 5° (N) 3,213 6.5 -8.8°
Reaches altitude 10° 05:21:41 10° 1° (N) 2,290 5.7 -8.3°
Maximum altitude 05:26:39 59° 282° (WNW) 877 3.1 -7.1°
Drops below altitude 10° 05:31:38 10° 203° (SSW) 2,301 5.1 -5.9°
Sets 05:33:58 0° 199° (SSW) 3,229 5.9 -5.4°
